Location: Sungai Apap
(2.6167°N, 113.3833°E)
Time: 15:38:03
(UTC+00:00)

Cosmos 1892 Rocket - Pass Details

Date: 08 August 2024
Orbit: 602 x 628 km, 82.5° (Epoch: 18 September)

Event Time Altitude Azimuth Distance (km) Brightness Sun altitude
Rises 12:46:58 0° 215° (SW) 2,907 7.2 -31.4°
Reaches altitude 10° 12:49:59 10° 236° (WSW) 1,994 6.5 -32.1°
Maximum altitude 12:52:39 16° 274° (W) 1,635 6.4 -32.7°
Drops below altitude 10° 12:55:20 10° 312° (NW) 1,980 6.9 -33.3°
Sets 12:58:19 0° 334° (NNW) 2,877 7.6 -34.0°
